CCA1788 ZYHB-ZSWH

Flight info

Callsign CCA1788
Flight time N/A
Altitude 30100
Route DUK07D DUKIR W655 NIMEM W205 NULRA A588 CHI W107 SANKO A326 OBDIS
Aircraft A321/M-SDE3FGHIRWY/LB1

Departure

Time 2026-04-28 02:01
Airport Harbin Taiping International Airport (ZYHB)

Arrival

Time N/A
Airport Weihai Dashuibo Airport (ZSWH)
Time Latitude Longitude Altitude Speed Heading
2026-04-28 01:48 45.61537 126.23248 463 ft 0 kts 39°
2026-04-28 01:53 45.61536 126.23247 466 ft 2 kts 39°
2026-04-28 01:54 45.61517 126.23225 462 ft 3 kts 39°
2026-04-28 01:54 45.61504 126.23206 464 ft 3 kts 68°
2026-04-28 01:54 45.61501 126.23181 465 ft 3 kts 112°
2026-04-28 01:54 45.61512 126.23157 465 ft 3 kts 130°
2026-04-28 01:55 45.61518 126.23146 463 ft 0 kts 129°
2026-04-28 01:56 45.61518 126.23147 463 ft 0 kts 129°
2026-04-28 01:57 45.61515 126.23151 460 ft 1 kts 129°
2026-04-28 01:57 45.61506 126.23167 460 ft 3 kts 129°
2026-04-28 01:57 45.61491 126.23192 466 ft 4 kts 129°
2026-04-28 01:57 45.61471 126.23227 464 ft 5 kts 129°
2026-04-28 01:58 45.61445 126.23273 464 ft 7 kts 129°
2026-04-28 01:58 45.61411 126.23330 465 ft 8 kts 129°
2026-04-28 01:58 45.61371 126.23400 466 ft 10 kts 129°
2026-04-28 01:58 45.61321 126.23478 465 ft 11 kts 141°
2026-04-28 01:59 45.61264 126.23542 465 ft 9 kts 134°
2026-04-28 01:59 45.61252 126.23639 464 ft 11 kts 83°
2026-04-28 01:59 45.61261 126.23741 465 ft 3 kts 83°
2026-04-28 01:59 45.61268 126.23762 466 ft 2 kts 62°
2026-04-28 02:00 45.61281 126.23777 466 ft 3 kts 38°
2026-04-28 02:00 45.61409 126.23924 462 ft 58 kts 39°
2026-04-28 02:00 45.61901 126.24501 459 ft 121 kts 39°
2026-04-28 02:00 45.62679 126.25417 457 ft 167 kts 39°
2026-04-28 02:01 45.63595 126.26505 950 ft 168 kts 37°
2026-04-28 02:01 45.64608 126.27277 1597 ft 166 kts
2026-04-28 02:01 45.65711 126.27081 2226 ft 163 kts 334°
2026-04-28 02:01 45.66726 126.26310 2861 ft 163 kts 331°
2026-04-28 02:02 45.67704 126.25562 3397 ft 162 kts 332°
2026-04-28 02:02 45.68716 126.24789 3837 ft 172 kts 332°
2026-04-28 02:02 45.69832 126.23936 4069 ft 192 kts 332°
2026-04-28 02:02 45.71091 126.22982 4221 ft 218 kts 332°
2026-04-28 02:03 45.72482 126.21930 4774 ft 229 kts 332°
2026-04-28 02:03 45.73895 126.20847 5634 ft 232 kts 329°
2026-04-28 02:03 45.75083 126.19280 6469 ft 238 kts 306°
2026-04-28 02:03 45.75789 126.17019 6929 ft 259 kts 290°
2026-04-28 02:04 45.76343 126.14537 7666 ft 264 kts 290°
2026-04-28 02:04 45.76914 126.12015 8501 ft 267 kts 291°
2026-04-28 02:04 45.77499 126.09469 9360 ft 270 kts 291°
2026-04-28 02:04 45.78019 126.06864 10148 ft 276 kts 281°
2026-04-28 02:05 45.77978 126.04083 10860 ft 285 kts 261°
2026-04-28 02:05 45.77232 126.01415 11565 ft 295 kts 239°
2026-04-28 02:05 45.75812 125.99162 11908 ft 319 kts 221°
2026-04-28 02:05 45.74022 125.97087 12071 ft 343 kts 221°
2026-04-28 02:06 45.72098 125.94882 12232 ft 364 kts 220°
2026-04-28 02:06 45.70089 125.92583 12755 ft 373 kts 220°
2026-04-28 02:06 45.68050 125.90239 13429 ft 379 kts 221°
2026-04-28 02:06 45.65991 125.87861 14067 ft 383 kts 221°
2026-04-28 02:07 45.63908 125.85448 14667 ft 387 kts 221°
2026-04-28 02:07 45.61804 125.83007 15275 ft 391 kts 221°
2026-04-28 02:07 45.59683 125.80544 15898 ft 394 kts 221°
2026-04-28 02:07 45.57548 125.78064 16496 ft 398 kts 221°
2026-04-28 02:08 45.55394 125.75568 17105 ft 401 kts 221°
2026-04-28 02:08 45.53216 125.73051 17693 ft 404 kts 221°
2026-04-28 02:08 45.51022 125.70521 18279 ft 407 kts 221°
2026-04-28 02:08 45.48811 125.67973 18803 ft 411 kts 220°
2026-04-28 02:09 45.46418 125.65711 19308 ft 416 kts 209°
2026-04-28 02:09 45.43724 125.64166 19817 ft 421 kts 197°